Temperature
4 5 5 5 5 5 5 5 5 6 6 7 6 6 6 6 7 7 7 7 7 7 7 7 7 7 8 8 8 8 8 8 7 7 7 7 6 6 6 6 6 6 5 5
3 4 4 4 5 5 5 6 6 6 6 6 6 5 5 6 6 6 6 6 6 6 6 6 7 7 7 7 7 7 7 7 7 6 6 6 6 5 5 5 5 5 5 4
2 3 4 3 4 4 5 5 5 6 5 5 5 5 5 5 5 5 5 5 5 5 6 6 6 6 6 6 6 6 6 6 6 6 5 5 5 5 5 5 4 4 4 4
1 2 2 3 4 4 4 4 4 5 5 5 5 5 5 5 5 5 5 5 5 5 5 5 5 6 6 5 5 5 5 5 5 5 5 4 4 4 4 4 4 3 3 3
1 1 2 3 3 3 3 3 3 3 3 4 4 4 3 4 4 4 4 4 4 5 5 5 5 5 5 5 5 4 4 4 4 4 4 4 3 3 3 3 3 3 2 2
0 1 2 2 3 3 3 3 2 2 2 2 3 3 2 3 3 4 4 4 4 4 4 4 4 4 4 4 4 4 4 3 3 3 3 3 3 3 2 2 2 2 2 2
-0 0 1 2 2 3 3 2 2 2 2 2 2 2 2 2 3 3 3 3 3 3 3 3 3 3 3 3 3 3 3 3 3 2 2 2 2 2 2 2 1 1 1 1
-1 -0 1 1 1 1 1 2 2 2 2 2 2 2 2 2 2 2 2 3 3 3 3 3 2 2 2 2 2 2 2 2 2 2 1 1 1 1 1 1 1 1 0 0
-0 0 0 1 1 1 2 1 1 1 1 1 1 1 1 1 1 1 1 2 2 2 2 2 2 2 2 1 1 1 1 1 1 1 1 1 1 1 0 0 0 -0 -0 -1
-1 -1 -0 0 1 1 1 1 1 1 1 1 0 0 0 0 0 0 0 1 1 1 1 1 1 1 0 0 0 0 0 0 -0 -0 -0 -0 -0 -0 -0 -0 -1 -1 -1 -1
-1 -1 -1 -0 -0 0 0 0 0 0 -0 0 0 -0 -0 -1 -0 -0 -0 -0 -0 -0 -0 -0 -0 -0 -0 -1 -1 -1 -1 -1 -1 -1 -1 -1 -1 -1 -1 -1 -1 -1 -2 -2
-1 -1 -1 -1 -1 -0 -0 -0 -0 -0 -1 -1 -0 -1 -1 -1 -1 -1 -1 -1 -1 -1 -1 -1 -1 -1 -1 -1 -1 -1 -1 -2 -2 -2 -2 -2 -2 -2 -2 -2 -2 -2 -2 -3
-1 -1 -1 -1 -1 -1 -1 -1 -1 -1 -1 -1 -1 -1 -1 -2 -2 -2 -2 -2 -2 -2 -2 -2 -2 -2 -2 -2 -2 -2 -2 -2 -2 -2 -2 -2 -2 -2 -2 -2 -2 -3 -3 -3
-2 -1 -2 -2 -2 -2 -2 -2 -2 -2 -2 -2 -2 -2 -2 -2 -2 -2 -2 -2 -2 -2 -2 -2 -2 -2 -2 -2 -2 -2 -3 -3 -3 -3 -3 -3 -3 -3 -3 -3 -3 -3 -3 -3
-2 -2 -2 -3 -3 -2 -2 -2 -2 -2 -2 -2 -2 -3 -3 -3 -3 -3 -3 -3 -3 -3 -3 -3 -3 -3 -3 -3 -3 -3 -3 -3 -3 -3 -3 -4 -4 -4 -4 -4 -4 -4 -4 -4
-3 -3 -3 -3 -3 -3 -3 -3 -3 -3 -3 -3 -3 -3 -3 -4 -4 -4 -4 -4 -4 -4 -4 -4 -3 -3 -4 -4 -4 -4 -4 -4 -4 -4 -4 -4 -4 -4 -4 -4 -4 -4 -4 -4
-4 -4 -4 -4 -4 -4 -4 -4 -4 -4 -4 -4 -4 -4 -4 -4 -4 -4 -4 -4 -4 -4 -4 -4 -4 -4 -4 -4 -4 -4 -4 -4 -5 -5 -5 -5 -5 -5 -5 -5 -5 -5 -5 -5
-4 -4 -4 -4 -5 -5 -5 -5 -4 -4 -4 -4 -4 -5 -5 -5 -5 -5 -5 -5 -5 -5 -5 -5 -5 -5 -5 -5 -5 -5 -5 -5 -5 -5 -5 -5 -5 -5 -5 -5 -5 -5 -5 -5
-5 -5 -5 -5 -5 -5 -5 -5 -5 -5 -5 -5 -5 -5 -5 -5 -5 -5 -5 -5 -5 -5 -5 -5 -5 -5 -5 -5 -5 -5 -5 -5 -5 -5 -5 -5 -5 -5 -5 -5 -5 -6 -6 -6
-5 -5 -5 -5 -5 -5 -5 -5 -5 -5 -5 -6 -6 -6 -6 -6 -6 -6 -6 -6 -6 -6 -6 -6 -6 -6 -6 -6 -6 -6 -6 -6 -6 -6 -6 -6 -6 -6 -6 -6 -6 -6 -6 -6
-6 -6 -6 -6 -6 -6 -6 -6 -6 -6 -6 -6 -6 -6 -6 -6 -7 -7 -7 -7 -7 -7 -7 -7 -7 -6 -6 -6 -6 -6 -6 -6 -6 -6 -6 -6 -6 -6 -6 -6 -6 -6 -6 -6
-6 -6 -6 -6 -6 -6 -6 -6 -6 -6 -6 -6 -7 -7 -7 -7 -7 -7 -7 -7 -7 -7 -7 -7 -7 -7 -7 -7 -7 -7 -7 -7 -7 -7 -7 -6 -7 -7 -7 -7 -6 -6 -7 -7
-7 -7 -7 -7 -7 -7 -7 -7 -7 -7 -7 -7 -7 -7 -7 -7 -8 -8 -8 -8 -8 -8 -8 -8 -8 -8 -8 -7 -7 -7 -7 -7 -7 -7 -7 -7 -7 -7 -7 -7 -7 -7 -7 -7
-7 -7 -7 -7 -8 -7 -8 -8 -8 -8 -8 -8 -8 -8 -8 -8 -8 -8 -8 -8 -8 -8 -8 -8 -8 -8 -8 -8 -8 -8 -8 -8 -7 -7 -7 -7 -7 -7 -7 -7 -7 -7 -7 -8
-8 -8 -8 -8 -8 -8 -8 -8 -9 -9 -9 -9 -9 -9 -9 -9 -9 -9 -9 -9 -9 -9 -8 -8 -8 -8 -8 -8 -8 -8 -8 -8 -8 -8 -8 -8 -8 -7 -7 -7 -8 -8 -8 -8
-8 -8 -8 -8 -9 -9 -9 -9 -9 -9 -9 -9 -9 -9 -9 -9 -9 -9 -9 -9 -9 -9 -9 -9 -8 -8 -8 -8 -8 -8 -8 -8 -8 -8 -8 -8 -8 -8 -8 -8 -8 -8 -8 -8
-8 -9 -9 -9 -9 -9 -9 -9 -9 -9 -9 -9 -9 -9 -9 -9 -9 -9 -9 -9 -9 -9 -9 -9 -9 -9 -9 -9 -9 -9 -9 -9 -9 -8 -8 -8 -8 -8 -8 -8 -8 -8 -8 -8
Wind_Speed
3 2 2 3 5 6 8 8 6 6 6 6 4 2 1 2 3 3 3 3 3 3 2 3 3 3 3 3 3 4 5 5 4 3 4 4 4 4 3 3 3 2 2 1
2 2 1 3 5 8 9 9 8 5 6 4 1 2 2 2 3 3 2 3 3 3 3 3 3 2 3 3 2 3 4 4 4 4 4 4 3 3 3 3 3 2 2 1
2 3 2 4 5 7 5 6 7 9 7 1 1 1 1 1 2 2 2 2 2 2 2 2 2 3 3 3 3 4 4 4 4 4 4 3 3 3 3 3 2 2 1 1
1 1 3 4 1 2 4 3 2 2 2 3 3 1 1 1 2 2 2 2 2 1 1 1 2 3 3 3 4 4 3 3 3 3 4 3 3 3 3 2 2 1 1 1
2 2 4 4 3 2 2 3 2 1 1 1 1 2 3 3 2 2 1 1 1 2 2 2 2 3 4 4 3 3 3 3 3 3 4 4 3 3 2 2 1 1 1 1
2 2 3 4 6 5 2 2 3 1 1 0 2 2 2 2 2 2 2 2 2 2 3 3 2 3 4 3 3 2 2 2 2 3 4 4 3 3 2 2 1 1 0 0
3 2 4 5 7 2 2 4 4 2 1 1 1 2 2 1 3 3 3 3 3 3 3 2 2 4 4 3 2 1 2 2 2 2 2 3 3 2 2 2 1 1 0 1
3 3 5 4 2 1 2 3 3 2 1 2 2 3 3 3 3 4 4 4 3 3 3 2 2 4 3 2 1 1 2 2 2 1 1 2 3 2 2 2 2 1 0 1
4 4 2 1 1 2 1 1 2 2 2 3 3 3 3 3 3 3 3 3 3 3 3 3 3 3 3 1 1 2 2 2 1 1 1 2 3 2 2 2 2 1 1 1
1 2 2 2 2 3 2 2 2 3 3 3 3 2 3 3 3 3 3 3 3 3 3 3 2 2 2 1 1 2 2 1 1 1 1 1 1 1 2 2 2 2 2 2
2 3 2 3 3 3 4 4 4 4 3 3 3 2 2 2 2 2 3 2 3 3 2 2 2 2 2 2 2 2 1 1 1 1 1 1 0 1 1 2 3 3 2 2
4 3 2 2 2 2 3 3 3 3 4 3 3 2 2 2 2 2 3 3 3 3 3 2 2 2 2 2 2 2 2 1 1 1 1 0 1 2 3 2 2 3 3 3
3 2 1 1 2 3 2 3 3 3 2 2 3 2 3 2 2 3 3 3 3 2 2 2 2 2 2 2 2 2 2 1 0 0 0 0 1 0 2 4 4 4 4 4
1 1 1 1 2 2 2 3 3 4 3 3 3 3 3 3 3 3 3 2 2 2 2 2 2 2 2 1 1 2 1 1 0 1 1 1 1 1 1 1 2 3 4 5
4 1 1 0 2 3 3 3 4 3 3 4 3 3 3 3 3 3 3 2 3 3 3 3 3 3 2 2 1 1 1 1 0 0 0 0 1 1 1 1 2 2 3 4
2 2 2 2 1 2 2 2 2 2 2 2 3 3 3 3 3 3 3 3 2 2 2 2 2 2 2 1 1 1 0 0 1 0 0 0 1 1 1 1 2 2 3 3
0 0 1 0 1 1 2 1 1 1 1 2 2 2 3 3 3 3 4 3 3 2 2 2 2 3 2 2 1 1 1 1 1 1 0 1 1 1 2 2 2 2 3 4
0 1 1 1 1 0 1 2 2 2 2 2 2 3 3 3 2 2 3 3 3 3 3 3 3 2 2 2 1 0 0 1 1 1 1 1 2 2 2 2 2 3 3 4
2 2 2 2 1 1 1 1 2 2 2 2 2 2 2 2 2 2 2 2 2 2 3 3 4 3 3 3 2 1 0 1 1 2 2 2 2 2 2 2 2 3 3 3
3 3 3 3 3 2 2 2 2 2 2 2 2 2 2 2 2 2 2 1 1 2 3 3 3 3 3 3 2 1 1 1 1 2 2 2 2 2 2 3 2 3 3 3
2 2 2 2 3 3 2 2 2 2 2 2 2 1 1 2 2 1 1 2 3 3 3 4 3 2 3 2 3 1 1 1 1 1 2 2 2 2 2 3 3 3 3 4
1 1 2 2 2 2 2 2 2 2 2 2 2 1 1 2 2 2 1 1 2 4 3 2 2 3 4 3 2 1 1 1 1 2 2 2 2 2 3 3 3 3 3 4
1 1 1 1 1 1 2 2 2 2 2 1 1 1 1 1 1 1 2 2 2 4 3 2 3 5 5 3 2 2 2 2 2 2 2 2 2 2 2 3 3 3 3 4
1 1 1 1 2 2 2 2 2 2 2 1 1 1 1 1 1 1 1 3 4 5 3 3 5 5 5 2 2 2 2 2 2 2 2 2 2 2 2 3 3 3 4 4
1 1 1 2 1 1 1 1 2 2 2 2 2 2 1 0 0 2 2 2 4 4 3 4 6 6 4 2 2 2 2 2 2 2 2 2 2 2 3 3 3 3 4 4
1 1 1 0 1 0 0 1 1 1 1 1 2 2 1 1 1 1 1 2 3 4 3 3 3 4 2 2 2 2 2 3 3 3 3 3 3 3 3 3 4 4 4 4
1 1 1 1 1 0 1 1 1 0 0 0 1 1 1 1 1 2 2 2 2 2 2 3 3 3 2 2 2 2 3 3 3 3 3 3 3 3 3 4 4 4 4 4
Wind_Direction
269 272 201 221 224 213 210 208 207 227 234 258 250 217 176 137 123 113 114 122 130 133 132 126 115 115 122 122 117 125 127 129 140 137 131 130 131 132 127 126 126 128 123 111
299 284 249 267 251 228 227 222 225 237 256 273 301 69 63 90 125 141 159 161 147 130 128 132 134 135 129 127 125 120 129 135 136 131 130 132 137 133 126 119 116 116 128 138
275 299 348 284 258 227 227 225 214 231 240 227 28 94 131 112 105 119 124 132 140 144 143 145 148 145 149 148 128 121 127 131 135 136 134 136 134 128 129 127 120 124 143 142
267 32 228 248 304 235 224 238 232 225 215 193 196 189 47 84 126 117 106 106 108 107 95 96 101 107 113 112 120 127 130 135 139 138 139 137 137 143 140 137 142 149 166 173
162 223 274 309 336 324 221 276 324 278 250 241 120 57 21 18 72 122 112 104 111 106 102 98 97 106 108 104 110 118 130 141 148 153 152 150 155 162 159 147 151 167 188 189
151 191 242 286 311 312 147 268 334 344 263 203 103 181 242 350 44 74 77 77 79 71 72 75 74 105 110 111 109 120 143 151 145 151 158 166 173 171 160 155 169 166 165 283
185 217 267 296 313 6 141 264 318 315 266 189 191 193 174 60 43 59 61 65 73 74 69 62 87 110 112 111 126 149 128 119 121 134 161 172 168 166 156 145 124 105 352 302
173 203 257 315 34 108 257 317 347 3 20 88 89 88 93 80 65 55 50 51 60 68 53 40 80 112 114 117 116 91 100 108 117 120 158 156 155 160 154 147 138 163 247 304
181 207 272 325 327 310 337 358 357 10 28 87 88 71 67 68 59 55 57 50 52 69 56 35 50 107 121 105 91 102 104 116 128 125 130 153 156 159 156 161 176 217 224 267
189 269 294 353 7 8 26 37 18 35 54 69 78 79 69 70 57 53 51 53 57 65 63 36 38 70 91 80 85 101 108 116 126 131 116 109 149 174 182 196 205 224 237 259
233 273 329 354 12 21 30 44 49 44 45 62 81 63 54 62 51 50 43 40 55 66 58 37 37 44 58 76 99 101 92 90 87 92 104 54 12 239 230 223 220 223 228 235
232 238 220 277 339 21 36 23 31 49 38 39 63 69 53 50 40 48 50 47 52 52 51 30 34 49 56 80 106 114 94 68 63 68 61 61 26 1 357 339 314 312 308 297
238 269 238 261 358 15 27 21 26 43 54 51 39 55 66 55 46 57 56 51 42 35 31 28 44 43 44 76 100 117 133 131 111 93 89 318 331 330 336 349 353 347 333 321
37 51 9 335 340 6 39 40 45 42 38 49 48 51 58 52 53 56 46 33 30 35 29 31 43 25 9 49 93 108 123 127 121 185 213 234 261 284 276 291 317 328 325 318
349 4 177 72 29 30 36 53 56 46 42 40 47 57 59 60 51 37 28 32 45 45 33 34 37 8 2 32 63 82 99 138 163 174 220 253 271 292 288 281 288 302 316 316
0 42 79 82 52 20 27 45 68 46 43 47 50 52 55 58 49 34 28 35 49 44 27 25 10 347 354 25 45 50 73 29 24 44 10 330 304 293 285 277 281 287 293 298
39 23 76 56 351 352 1 19 77 73 67 67 61 59 64 63 55 39 23 23 32 31 20 18 355 350 360 15 29 10 1 357 13 10 312 286 276 277 283 282 287 293 294 299
268 250 230 207 206 332 19 35 53 57 67 67 68 66 64 63 53 25 12 19 31 30 19 6 357 7 7 359 360 11 21 345 330 305 295 294 289 284 292 289 288 293 306 309
56 69 66 68 70 86 69 52 48 61 64 70 75 66 55 46 36 17 26 38 34 14 347 341 360 17 357 343 3 31 19 342 333 321 311 308 323 321 309 298 296 300 305 312
55 62 69 58 52 62 63 58 66 67 60 73 79 67 49 27 19 19 31 23 346 312 309 330 358 355 340 332 352 356 346 336 324 321 324 321 312 307 303 300 301 305 309 311
59 61 62 59 50 44 48 57 74 67 52 65 83 76 40 8 5 16 33 2 339 335 338 352 359 331 322 330 354 17 2 341 325 320 318 311 306 304 302 304 308 309 310 311
55 67 64 63 61 39 24 37 62 71 59 57 65 68 52 17 6 8 360 295 307 333 349 342 324 321 331 357 30 15 351 337 328 325 314 297 289 292 296 301 304 309 311 310
82 81 76 71 70 49 34 38 46 64 69 63 58 43 30 345 340 353 333 326 323 336 349 327 324 336 355 28 20 2 345 338 328 321 310 291 285 288 294 300 303 306 307 307
99 88 85 78 83 78 55 36 42 56 60 43 32 28 39 23 359 339 293 326 342 346 348 333 343 349 9 29 5 348 336 329 322 318 319 313 305 302 299 298 300 302 302 303
115 97 89 93 93 87 67 59 52 51 48 37 17 8 8 8 260 316 325 330 343 353 353 348 352 357 10 2 349 337 329 320 318 323 324 322 315 308 303 299 299 301 304 304
124 125 128 142 158 151 97 96 82 53 44 25 6 355 355 353 338 335 341 342 341 352 354 341 338 347 350 347 343 336 330 327 334 335 323 317 313 311 306 304 301 300 300 301
112 102 90 55 31 62 100 108 106 8 327 282 319 331 340 348 351 349 344 345 345 344 340 336 336 336 337 339 337 332 329 324 320 316 314 310 306 305 304 299 300 303 303 302
Height
1445 1443 1443 1443 1443 1444 1445 1445 1448 1444 1442 1438 1438 1438 1438 1438 1438 1439 1440 1441 1442 1443 1444 1446 1447 1449 1450 1452 1454 1456 1458 1459 1461 1462 1464 1465 1467 1468 1469 1470 1470 1471 1471 1471
1446 1442 1441 1442 1441 1441 1440 1441 1441 1441 1441 1438 1438 1438 1438 1438 1439 1439 1440 1441 1442 1443 1444 1445 1446 1447 1449 1451 1452 1454 1455 1457 1459 1460 1461 1462 1464 1465 1466 1466 1467 1467 1468 1468
1449 1445 1441 1446 1441 1439 1439 1437 1438 1439 1439 1439 1439 1438 1439 1439 1439 1439 1440 1441 1442 1443 1444 1445 1446 1447 1448 1449 1451 1452 1453 1454 1456 1457 1459 1460 1461 1462 1462 1463 1463 1464 1464 1464
1452 1449 1452 1443 1438 1436 1436 1435 1436 1436 1436 1437 1438 1438 1439 1439 1439 1439 1440 1441 1442 1443 1443 1444 1445 1446 1447 1448 1449 1450 1451 1452 1453 1455 1456 1457 1458 1459 1459 1460 1460 1460 1461 1461
1454 1453 1447 1441 1439 1438 1438 1438 1437 1436 1436 1436 1437 1437 1439 1439 1439 1439 1440 1441 1441 1442 1443 1443 1444 1444 1445 1446 1447 1448 1449 1450 1451 1452 1453 1454 1455 1456 1456 1457 1457 1457 1457 1457
1455 1453 1449 1444 1439 1436 1438 1439 1437 1436 1436 1436 1436 1439 1440 1439 1438 1439 1439 1440 1441 1441 1442 1442 1442 1443 1444 1444 1445 1446 1447 1448 1449 1450 1451 1451 1452 1453 1453 1453 1454 1454 1453 1454
1454 1454 1448 1443 1438 1435 1443 1441 1437 1436 1435 1435 1435 1437 1438 1438 1438 1438 1438 1439 1439 1440 1440 1441 1441 1442 1442 1443 1443 1444 1445 1446 1447 1448 1448 1449 1449 1450 1450 1450 1450 1450 1450 1450
1454 1455 1451 1441 1439 1442 1441 1438 1437 1436 1435 1435 1435 1435 1436 1436 1437 1437 1438 1438 1438 1439 1439 1440 1440 1440 1440 1441 1442 1442 1443 1443 1444 1445 1446 1446 1446 1447 1447 1447 1447 1447 1446 1445
1448 1449 1444 1441 1441 1440 1439 1438 1437 1436 1435 1435 1435 1435 1435 1436 1436 1437 1437 1437 1437 1438 1438 1438 1439 1439 1439 1439 1440 1440 1441 1441 1442 1442 1443 1443 1444 1444 1444 1444 1443 1443 1442 1441
1446 1444 1442 1441 1440 1440 1438 1438 1437 1436 1436 1435 1435 1435 1435 1436 1436 1436 1436 1436 1436 1436 1436 1437 1437 1437 1438 1438 1438 1439 1439 1439 1440 1440 1440 1441 1441 1441 1441 1441 1440 1439 1439 1438
1444 1443 1442 1441 1440 1439 1439 1438 1437 1436 1436 1436 1435 1435 1435 1435 1435 1435 1435 1435 1435 1435 1435 1435 1435 1436 1436 1437 1437 1437 1437 1437 1437 1437 1437 1438 1438 1438 1438 1438 1438 1437 1436 1436
1443 1441 1441 1440 1440 1439 1438 1437 1437 1436 1436 1435 1435 1435 1435 1434 1434 1434 1434 1434 1434 1434 1434 1434 1434 1434 1434 1435 1435 1435 1435 1435 1435 1435 1435 1435 1435 1435 1436 1436 1436 1435 1434 1434
1439 1439 1439 1438 1438 1438 1437 1437 1437 1436 1435 1435 1435 1434 1434 1434 1434 1433 1433 1433 1432 1432 1432 1432 1432 1432 1433 1433 1433 1433 1433 1433 1433 1433 1433 1433 1432 1432 1432 1432 1432 1432 1431 1430
1438 1437 1437 1437 1437 1437 1437 1436 1436 1435 1435 1435 1434 1434 1434 1433 1433 1432 1432 1432 1432 1432 1432 1431 1431 1431 1432 1432 1432 1432 1432 1431 1431 1431 1431 1431 1430 1430 1429 1429 1428 1427 1428 1427
1436 1436 1436 1436 1436 1436 1435 1435 1435 1434 1434 1434 1434 1433 1433 1433 1432 1432 1432 1432 1431 1431 1431 1431 1430 1430 1431 1431 1430 1430 1430 1430 1430 1429 1429 1429 1428 1428 1427 1427 1426 1425 1424 1423
1435 1435 1435 1434 1434 1434 1434 1434 1434 1433 1433 1433 1433 1433 1433 1432 1432 1432 1432 1431 1431 1430 1430 1430 1429 1429 1429 1429 1429 1429 1428 1428 1428 1427 1427 1427 1426 1426 1425 1424 1424 1422 1421 1420
1434 1434 1433 1433 1433 1433 1433 1433 1433 1432 1433 1432 1432 1432 1432 1432 1431 1431 1431 1431 1430 1430 1430 1429 1429 1428 1428 1428 1428 1427 1427 1426 1426 1426 1425 1425 1424 1424 1423 1422 1421 1420 1419 1418
1434 1433 1433 1432 1432 1432 1432 1432 1432 1432 1432 1432 1432 1431 1431 1431 1431 1430 1430 1430 1430 1429 1429 1428 1428 1427 1427 1426 1426 1426 1425 1425 1424 1424 1423 1423 1422 1422 1421 1420 1419 1417 1416 1415
1433 1432 1432 1432 1431 1431 1431 1431 1431 1431 1431 1431 1431 1431 1430 1430 1430 1430 1429 1429 1428 1427 1427 1427 1426 1426 1425 1425 1425 1424 1424 1423 1422 1422 1421 1421 1420 1419 1418 1417 1416 1415 1414 1412
1432 1432 1431 1431 1431 1431 1430 1430 1430 1430 1430 1430 1430 1430 1430 1430 1429 1429 1428 1428 1427 1426 1426 1425 1425 1424 1424 1423 1423 1422 1422 1421 1420 1419 1419 1418 1417 1416 1415 1414 1413 1412 1411 1409
1432 1431 1431 1430 1430 1430 1430 1429 1429 1429 1429 1429 1429 1429 1429 1429 1428 1428 1427 1426 1426 1426 1425 1424 1423 1423 1422 1422 1421 1420 1420 1419 1418 1417 1416 1415 1414 1413 1413 1412 1411 1409 1408 1406
1432 1431 1430 1430 1430 1429 1429 1429 1429 1428 1428 1428 1428 1428 1428 1428 1427 1427 1426 1426 1425 1424 1423 1423 1422 1421 1421 1420 1419 1418 1417 1417 1416 1415 1414 1413 1412 1411 1410 1409 1408 1407 1405 1403
1431 1430 1430 1430 1429 1429 1429 1428 1428 1428 1428 1428 1427 1427 1427 1427 1426 1425 1425 1425 1424 1423 1422 1422 1421 1420 1419 1418 1417 1416 1416 1415 1414 1413 1412 1411 1410 1409 1408 1406 1405 1404 1402 1401
1430 1430 1429 1429 1429 1429 1428 1428 1428 1427 1427 1427 1427 1426 1426 1425 1425 1425 1424 1423 1422 1422 1421 1420 1420 1419 1418 1417 1416 1415 1414 1413 1412 1411 1410 1409 1408 1407 1405 1404 1403 1401 1400 1398
1429 1429 1429 1428 1428 1428 1428 1427 1427 1427 1427 1426 1426 1426 1425 1425 1424 1424 1423 1422 1422 1421 1420 1419 1418 1417 1416 1415 1414 1413 1413 1412 1411 1410 1408 1407 1406 1404 1403 1402 1400 1399 1397 1396
1428 1428 1428 1428 1427 1427 1427 1426 1426 1426 1426 1425 1425 1425 1425 1424 1423 1423 1422 1421 1421 1420 1419 1418 1417 1416 1415 1414 1413 1412 1411 1410 1409 1408 1407 1405 1404 1403 1401 1400 1398 1397 1395 1393
1427 1427 1427 1427 1426 1426 1426 1425 1425 1425 1425 1424 1424 1424 1424 1423 1422 1422 1421 1420 1420 1419 1418 1417 1416 1415 1414 1413 1412 1411 1410 1409 1408 1406 1405 1404 1402 1401 1399 1398 1396 1395 1393 1391